Fortuna, CA

1:30 AM PDT on March 29, 2017 (GMT -0700)
Rohnerville

Weather History for KFOT - April, 2013

Change the Weather History Date:

Friday, April 26, 2013

  Actual Average (KEKA) Record (KEKA)
Temperature  
Mean Temperature 50 °F -  
Max Temperature 53 °F 57 °F 73 °F (2004)
Min Temperature 46 °F 44 °F 35 °F (1901)
Degree Days  
Heating Degree Days 16    
Moisture  
Dew Point 47 °F    
Average Humidity 92    
Maximum Humidity 100    
Minimum Humidity 82    
Precipitation  
Precipitation 0.00 in - - ()
Sea Level Pressure  
Sea Level Pressure 30.23 in    
Wind  
Wind Speed 0 mph (North)    
Max Wind Speed 0 mph    
Max Gust Speed -    
Visibility 9 miles    
Events      
Averages and records for this station are not official NWS values.
T = Trace of Precipitation, MM = Missing Value Source: NWS Daily Summary

Daily Weather History Graph

Daily Weather History Graph

Search for Another Location

Airport or City:

Trip Planner

Search our weather history database for the weather conditions in past years. The results will help you decide how hot, cold, wet, or windy it might be!

Date:

Astronomy

Apr. 26, 2013 Rise Set
Actual Time 6:21 AM PDT 8:07 PM PDT
Civil Twilight 5:52 AM PDT 8:36 PM PDT
Nautical Twilight 5:17 AM PDT 9:12 PM PDT
Astronomical Twilight 4:39 AM PDT 9:50 PM PDT
Moon 9:37 PM PDT (4/26) 6:53 AM PDT (4/26)
Length of Visible Light 14h 44m
Length of Day
13h 45m
Full, 99% of the Moon is Illuminated
Apr 26
Full
May 2
Last Quarter
May 9
New
May 17
First Quarter
May 24
Full

Hourly Weather History & Observations

Time (PDT) Temp. Dew Point Humidity Pressure Visibility Wind Dir Wind Speed Gust Speed Precip Events Conditions
12:15 AM 48.2 °F 46.4 °F 93% 30.18 in 10.0 mi Calm Calm - N/A   Overcast
12:35 AM 48.2 °F 46.4 °F 93% 30.19 in 10.0 mi Calm Calm - N/A   Overcast
12:55 AM 48.2 °F 46.4 °F 93% 30.18 in 10.0 mi Calm Calm - N/A   Overcast
1:15 AM 48.2 °F 46.4 °F 93% 30.18 in 10.0 mi Calm Calm - N/A   Overcast
1:35 AM 48.2 °F 46.4 °F 93% 30.18 in 10.0 mi Calm Calm - N/A   Overcast
1:55 AM 48.2 °F 46.4 °F 93% 30.17 in 10.0 mi Calm Calm - N/A   Overcast
2:15 AM 48.2 °F 46.4 °F 93% 30.16 in 10.0 mi Calm Calm - N/A   Overcast
2:35 AM 48.2 °F 46.4 °F 93% 30.17 in 10.0 mi Calm Calm - N/A   Overcast
2:55 AM 48.2 °F 46.4 °F 93% 30.16 in 10.0 mi Calm Calm - N/A   Overcast
3:15 AM 48.2 °F 46.4 °F 93% 30.17 in 10.0 mi Calm Calm - N/A   Overcast
3:35 AM 48.2 °F 46.4 °F 93% 30.17 in 10.0 mi Calm Calm - N/A   Overcast
3:55 AM 48.2 °F 46.4 °F 93% 30.18 in 10.0 mi Calm Calm - N/A   Overcast
4:15 AM 48.2 °F 46.4 °F 93% 30.18 in 10.0 mi Calm Calm - N/A   Overcast
4:35 AM 48.2 °F 46.4 °F 93% 30.18 in 10.0 mi Calm Calm - N/A   Overcast
4:55 AM 48.2 °F 46.4 °F 93% 30.18 in 10.0 mi Calm Calm - N/A   Overcast
5:15 AM 48.2 °F 46.4 °F 93% 30.18 in 9.0 mi Calm Calm - N/A   Overcast
5:35 AM 48.2 °F 46.4 °F 93% 30.18 in 10.0 mi Calm Calm - N/A   Overcast
5:55 AM 48.2 °F 46.4 °F 93% 30.19 in 8.0 mi Calm Calm - N/A   Overcast
6:15 AM 48.2 °F 46.4 °F 93% 30.20 in 10.0 mi Calm Calm - N/A   Overcast
6:35 AM 48.2 °F 46.4 °F 93% 30.20 in 9.0 mi Calm Calm - N/A   Overcast
6:55 AM 48.2 °F 46.4 °F 93% 30.20 in 6.0 mi Calm Calm - N/A   Overcast
7:15 AM 48.2 °F 46.4 °F 93% 30.20 in 7.0 mi Calm Calm - N/A   Overcast
7:35 AM 48.2 °F 46.4 °F 93% 30.20 in 5.0 mi Calm Calm - N/A   Overcast
7:55 AM 48.2 °F 46.4 °F 93% 30.21 in 9.0 mi Calm Calm - N/A   Overcast
8:15 AM 48.2 °F 46.4 °F 93% 30.21 in 10.0 mi Calm Calm - N/A   Overcast
8:35 AM 48.2 °F 48.2 °F 100% 30.21 in 10.0 mi Calm Calm - N/A   Overcast
8:55 AM 48.2 °F 46.4 °F 93% 30.21 in 10.0 mi Calm Calm - N/A   Overcast
9:15 AM 48.2 °F 46.4 °F 93% 30.22 in 10.0 mi Calm Calm - N/A   Overcast
9:35 AM 50.0 °F 48.2 °F 94% 30.23 in 10.0 mi Calm Calm - N/A   Overcast
9:55 AM 50.0 °F 48.2 °F 94% 30.23 in 10.0 mi Calm Calm - N/A   Overcast
10:15 AM 50.0 °F 48.2 °F 94% 30.23 in 10.0 mi Calm Calm - N/A   Overcast
10:35 AM 51.8 °F 48.2 °F 88% 30.23 in 10.0 mi Calm Calm - N/A   Overcast
10:55 AM 53.6 °F 48.2 °F 82% 30.24 in 10.0 mi Calm Calm - N/A   Overcast
11:15 AM 53.6 °F 50.0 °F 88% 30.24 in 10.0 mi Calm Calm - N/A   Overcast
11:35 AM 53.6 °F 50.0 °F 88% 30.25 in 10.0 mi Calm Calm - N/A   Overcast
11:55 AM 53.6 °F 50.0 °F 88% 30.25 in 9.0 mi Calm Calm - N/A   Mostly Cloudy
12:15 PM 51.8 °F 50.0 °F 94% 30.25 in 7.0 mi Calm Calm - N/A   Mostly Cloudy
12:35 PM 53.6 °F 50.0 °F 88% 30.25 in 9.0 mi Calm Calm - N/A   Mostly Cloudy
12:55 PM 51.8 °F 48.2 °F 88% 30.26 in 9.0 mi Calm Calm - N/A   Overcast
1:15 PM 51.8 °F 48.2 °F 88% 30.26 in 9.0 mi Calm Calm - N/A   Overcast
1:35 PM 51.8 °F 48.2 °F 88% 30.27 in 9.0 mi Calm Calm - N/A   Overcast
1:55 PM 51.8 °F 48.2 °F 88% 30.27 in 9.0 mi Calm Calm - N/A   Overcast
2:15 PM 51.8 °F 48.2 °F 88% 30.27 in 10.0 mi Calm Calm - N/A   Overcast
2:35 PM 51.8 °F 48.2 °F 88% 30.27 in 10.0 mi Calm Calm - N/A   Overcast
2:55 PM 51.8 °F 48.2 °F 88% 30.27 in 10.0 mi Calm Calm - N/A   Overcast
3:15 PM 51.8 °F 48.2 °F 88% 30.27 in 10.0 mi Calm Calm - N/A   Overcast
3:35 PM 51.8 °F 48.2 °F 88% 30.27 in 10.0 mi Calm Calm - N/A   Overcast
3:55 PM 53.6 °F 48.2 °F 82% 30.27 in 10.0 mi Calm Calm - N/A   Overcast
4:15 PM 53.6 °F 48.2 °F 82% 30.27 in 10.0 mi Calm Calm - N/A   Overcast
4:35 PM 53.6 °F 48.2 °F 82% 30.26 in 10.0 mi Calm Calm - N/A   Overcast
4:55 PM 53.6 °F 48.2 °F 82% 30.26 in 10.0 mi Calm Calm - N/A   Overcast
5:15 PM 53.6 °F 48.2 °F 82% 30.26 in 10.0 mi Calm Calm - N/A   Mostly Cloudy
5:35 PM 53.6 °F 48.2 °F 82% 30.26 in 10.0 mi Calm Calm - N/A   Partly Cloudy
5:55 PM 51.8 °F 48.2 °F 88% 30.26 in 10.0 mi Calm Calm - N/A   Partly Cloudy
6:15 PM 50.0 °F 48.2 °F 94% 30.26 in 10.0 mi Calm Calm - N/A   Mostly Cloudy
6:35 PM 48.2 °F 46.4 °F 93% 30.26 in 10.0 mi Calm Calm - N/A   Mostly Cloudy
6:55 PM 48.2 °F 46.4 °F 93% 30.26 in 10.0 mi Calm Calm - N/A   Overcast
7:15 PM 48.2 °F 46.4 °F 93% 30.26 in 10.0 mi Calm Calm - N/A   Overcast
7:35 PM 48.2 °F 46.4 °F 93% 30.26 in 10.0 mi Calm Calm - N/A   Overcast
7:55 PM 48.2 °F 46.4 °F 93% 30.26 in 10.0 mi Calm Calm - N/A   Overcast
8:15 PM 48.2 °F 46.4 °F 93% 30.26 in 9.0 mi Calm Calm - N/A   Overcast
8:35 PM 48.2 °F 46.4 °F 93% 30.27 in 10.0 mi Calm Calm - N/A   Overcast
8:55 PM 48.2 °F 46.4 °F 93% 30.28 in 8.0 mi Calm Calm - N/A   Overcast
9:15 PM 48.2 °F 46.4 °F 93% 30.28 in 7.0 mi Calm Calm - N/A   Overcast
9:35 PM 48.2 °F 46.4 °F 93% 30.28 in 6.0 mi Calm Calm - N/A   Overcast
9:55 PM 46.4 °F 46.4 °F 100% 30.29 in 5.0 mi Calm Calm - N/A   Overcast
10:15 PM 46.4 °F 46.4 °F 100% 30.29 in 3.0 mi Calm Calm - N/A   Overcast
10:35 PM 46.4 °F 46.4 °F 100% 30.29 in 2.0 mi Calm Calm - N/A   Overcast
10:55 PM 46.4 °F 46.4 °F 100% 30.28 in 1.8 mi Calm Calm - N/A   Overcast
11:15 PM 46.4 °F 46.4 °F 100% 30.28 in 1.5 mi Calm Calm - N/A   Overcast
11:35 PM 46.4 °F 46.4 °F 100% 30.28 in 1.5 mi Calm Calm - N/A   Overcast
11:55 PM 46.4 °F 46.4 °F 100% 30.28 in 1.0 mi Calm Calm - N/A   Overcast